TimeEET,TemperatureF,Dew PointF,Humidity,Sea Level PressureIn,VisibilityMPH,Wind Direction,Wind SpeedMPH,Gust SpeedMPH,PrecipitationIn,Events,Conditions,WindDirDegrees,DateUTC
12:00 AM,64.4,26.6,24,30.06,-9999.0,North,9.2,-,N/A,,Clear,360,2013-01-19 22:00:00
1:00 AM,62.6,28.4,27,30.06,-9999.0,North,10.4,-,N/A,,Clear,10,2013-01-19 23:00:00
2:00 AM,62,29,17,30.06,6,North,11.5,,,,,0,2013-01-20 00:00:00
2:00 AM,60.8,28.4,29,30.06,-9999.0,North,11.5,-,N/A,,Clear,360,2013-01-20 00:00:00
3:00 AM,59.0,28.4,31,30.06,-9999.0,North,9.2,-,N/A,,Clear,10,2013-01-20 01:00:00
4:00 AM,59.0,28.4,31,30.06,-9999.0,North,9.2,-,N/A,,Clear,10,2013-01-20 02:00:00
5:00 AM,57.2,28.4,33,30.04,-9999.0,NNE,10.4,-,N/A,,Clear,20,2013-01-20 03:00:00
6:00 AM,57.2,28.4,33,30.06,-9999.0,NNE,10.4,-,N/A,,Clear,20,2013-01-20 04:00:00
7:00 AM,55.4,30.2,38,30.09,-9999.0,NNE,8.1,-,N/A,,Clear,20,2013-01-20 05:00:00
8:00 AM,58,30,22,30.12,6,North,6.9,,,,,0,2013-01-20 06:00:00
8:00 AM,57.2,30.2,36,30.09,-9999.0,North,6.9,-,N/A,,Clear,360,2013-01-20 06:00:00
9:00 AM,62.6,30.2,30,30.12,-9999.0,North,11.5,-,N/A,,Clear,360,2013-01-20 07:00:00
10:00 AM,66.2,30.2,26,30.12,-9999.0,North,9.2,-,N/A,,Clear,360,2013-01-20 08:00:00
11:00 AM,71.6,37.4,29,30.12,-9999.0,North,9.2,-,N/A,,Clear,360,2013-01-20 09:00:00
12:00 PM,75.2,41.0,29,30.09,-9999.0,North,9.2,-,N/A,,Clear,10,2013-01-20 10:00:00
1:00 PM,78.8,44.6,30,30.06,-9999.0,North,9.2,-,N/A,,Clear,10,2013-01-20 11:00:00
1:09 PM,78.8,44.6,30,30.06,-9999.0,North,9.2,-,N/A,,Clear,10,2013-01-20 11:09:00
2:00 PM,82,46,18,30.01,6,NNW,9.2,,,,,340,2013-01-20 12:00:00
2:00 PM,82.4,46.4,28,30.04,-9999.0,NNW,9.2,-,N/A,,Clear,340,2013-01-20 12:00:00
3:00 PM,84.2,46.4,27,30.01,-9999.0,North,10.4,-,N/A,,Clear,360,2013-01-20 13:00:00
4:00 PM,82.4,46.4,28,30.01,-9999.0,North,10.4,-,N/A,,Clear,360,2013-01-20 14:00:00
5:00 PM,82.4,46.4,28,30.01,-9999.0,North,9.2,-,N/A,,Clear,350,2013-01-20 15:00:00
6:00 PM,78.8,42.8,28,30.01,-9999.0,North,8.1,-,N/A,,Clear,360,2013-01-20 16:00:00
7:00 PM,75.2,39.2,27,30.04,-9999.0,North,5.8,-,N/A,,Clear,360,2013-01-20 17:00:00
8:00 PM,74,35,15,30.02,6,NNE,8.1,,,,,20,2013-01-20 18:00:00
8:00 PM,75.2,35.6,24,30.04,-9999.0,NNE,8.1,-,N/A,,Clear,20,2013-01-20 18:00:00
9:00 PM,73.4,33.8,23,30.06,-9999.0,North,10.4,-,N/A,,Clear,10,2013-01-20 19:00:00
10:00 PM,69.8,30.2,23,30.06,-9999.0,North,10.4,-,N/A,,Clear,10,2013-01-20 20:00:00
11:00 PM,66.2,28.4,24,30.06,-9999.0,North,6.9,-,N/A,,Clear,360,2013-01-20 21:00:00